Back to catalog

STARLINK-11313

AliveCommunicationsVLEO
NORAD 61255·PAYLOAD·🇺🇸 United States

Launched Sep 25, 2024 from Vandenberg Space Force Base

Loading…

Next Passes (next 24 hours)

TLE

FreshSource: CelesTrak SupGP

Epoch: Sep 15, 2026, 03:24 UTC

1 61255C 24175N   26258.14215278 -.00075148  00000+0 -61872-3 0  2582
2 61255  53.1572 202.4076 0001193  84.8863 182.4464 15.69758588    18

Track STARLINK-11313 in real time with AllMySat

Download on the App Store